STARLINK-35341 (66027 NORAD) Tracking and Keplerian Element Data

This shows tracking and keplerian element data for the satellite.

Feedback or suggestion? Click here.




ElementValue
Catalog66027
NameSTARLINK-35341
Epoch Orbit1120
Epoch Day353.8241038
Epoch Year2025
RAAN115.1627
Inclination53.158
Eccentricity6.04E-05
Argument of Perigee68.8592
Mean Anonmoly291.2473
Mean Motion15.30214894
Decay Rate0.00020916
L11 66027U 25232Y 25353.82410380 .00020916 00000+0 71598-3 0 9999
L22 66027 53.1580 115.1627 0000604 68.8592 291.2473 15.30214894 11205



Live tracking and technical data element details for STARLINK-35341 (NORAD 66027). STARLINK-35341 can be tracked NOW for your location showing map with azimuth and elevation plus other details from your city location.







IsCatalogInMostPopularTable: catalog: 66027, numindb: 13
Update: records affected: 1



GetName: 66027 STARLINK-35341

Hit Count: updated at: Thu, 21 May 2026 11:39:53 GMT